Regional Weather Roundup
Issued by NWS

Home | Current Version | Previous Version | Text Only | Print | Product List | Glossary Off
Versions: 1 2 3 4 5 6 7 8 9 10 11 12 13 14 15 16 17 18 19 20 21 22 23 24 25 26 27 28 29 30 31 32 33 34 35 36 37 38 39 40 41 42 43 44 45 46 47 48 49 50

822
ASUS43 KFSD 240810
RWRSD

WEATHER ROUNDUP FOR SOUTH DAKOTA
NATIONAL WEATHER SERVICE SIOUX FALLS SD
300 AM CDT TUE MAY 24 2016

NOTE: "FAIR" INDICATES FEW OR NO CLOUDS BELOW 12,000 FEET WITH NO
SIGNIFICANT WEATHER AND/OR OBSTRUCTIONS TO VISIBILITY.


SDZ001>005-009-010-012>017-240900-
NORTHWEST AND NORTH CENTRAL SOUTH DAKOTA

CITY           SKY/WX    TMP DP  RH WIND       PRES   REMARKS
BUFFALO          N/A     47  36  65 NW8       29.78S
FAITH            N/A     50  41  71 W7        29.81R
MOBRIDGE       PTCLDY    54  46  74 CALM      29.74S
$$

SDZ012>016-024>037-041>051-057-063-072>074-240900-
SOUTHWEST AND SOUTH CENTRAL SOUTH DAKOTA

CITY           SKY/WX    TMP DP  RH WIND       PRES   REMARKS
RAPID CTY ARPT CLEAR     50  36  58 NW10      29.84R
PIERRE         CLEAR     56  41  57 W14       29.74F
CUSTER         CLEAR     42  25  50 NW5       29.91S
ELLSWORTH AFB  CLEAR     54  35  47 NW15      29.83R
PHILIP         CLEAR     52  42  69 NW12      29.78R
PINE RIDGE     CLEAR     46  37  71 CALM      29.84S
WINNER         FAIR      56  44  64 N3        29.77R
$$

SDZ004>011-016>023-039-040-240900-
NORTHEAST SOUTH DAKOTA

CITY           SKY/WX    TMP DP  RH WIND       PRES   REMARKS
ABERDEEN       PTCLDY    59  54  83 NW10      29.78R
WATERTOWN      CLEAR     58  54  86 SE5       29.77S
BROOKINGS      CLEAR     59  58  96 S6        29.78S FOG
SISSETON         N/A     66  56  70 W14       29.73R
$$

SDZ017-020-022-023-036>040-048>070-240900-
SOUTHEAST SOUTH DAKOTA

CITY           SKY/WX    TMP DP  RH WIND       PRES   REMARKS
SIOUX FALLS    CLEAR     62  59  90 S6        29.78S
HURON          CLOUDY    58  57  97 SE6       29.74F
CHAMBERLAIN    CLEAR     57  54  91 W5        29.77R
MITCHELL       CLOUDY    61  60  97 CALM      29.75R FOG
YANKTON        CLEAR     63  57  82 S7        29.76F
$$

ABBREVIATIONS USED IN REMARKS
   TC - TEMPERATURE IN CELSIUS
  WCI - WIND CHILL INDEX
   HX - HEAT INDEX
  VSB - VISIBILITY





USA.gov is the U.S. government's official web portal to all federal, state and local government web resources and services.